Weather reports worldwide

Advertisment
Waddington, United Kingdom (3377): temperature & dewpoint: 17.08.2019 13:00:00 - 23.08.2019 13:00:00 (BST)Waddington, United Kingdom (3377): temperature -20cm & temperature -100cm: 17.08.2019 13:00:00 - 23.08.2019 13:00:00 (BST)Waddington, United Kingdom (3377): wind speed & gusts: 17.08.2019 13:00:00 - 23.08.2019 13:00:00 (BST)Waddington, United Kingdom (3377): wind direction: 17.08.2019 13:00:00 - 23.08.2019 13:00:00 (BST)Waddington, United Kingdom (3377): reduced air pressure: 17.08.2019 13:00:00 - 23.08.2019 13:00:00 (BST)Waddington, United Kingdom (3377): visibility: 17.08.2019 13:00:00 - 23.08.2019 13:00:00 (BST)Waddington, United Kingdom (3377): sunshine duration: 17.08.2019 13:00:00 - 23.08.2019 13:00:00 (BST)Waddington, United Kingdom (3377): precipitation: 17.08.2019 13:00:00 - 23.08.2019 13:00:00 (BST)
Date & Time tt [°C] td [°C] tt -20cm [°C] tt -100cm [°C] ff [km/h] ff [kn] fx [km/h] fx [kn] dd ppp [hPa] vv [km] sd [min] rr [mm]
23.08.2019 13:00:00 23,5 15,3 - - 16 9 - - S 1023,5 10 60 -
23.08.2019 12:00:00 22,8 15,4 - - 18 10 - - SSW 1023,8 10 60 0,0
23.08.2019 11:00:00 21,5 15,3 - - 16 9 - - SSW 1024,1 10 60 0,0
23.08.2019 10:00:00 19,4 15,1 17,7 17,2 11 6 - - WSW 1024,4 10 60 0,0
23.08.2019 09:00:00 18,3 15,3 - - 13 7 - - WSW 1024,2 10 60 0,0
23.08.2019 08:00:00 16,5 14,6 - - 21 11 - - WSW 1024,1 10 60 0,0
23.08.2019 07:00:00 15,9 14,3 - - 16 9 - - SW 1024,0 10 30 0,0
23.08.2019 06:00:00 15,4 14,3 - - 21 11 - - SW 1023,8 10 0 0,0
23.08.2019 05:00:00 15,2 14,1 - - 18 10 - - SW 1023,9 10 0 0,0
23.08.2019 04:00:00 15,6 14,1 - - 18 10 - - SW 1023,7 10 0 0,0
23.08.2019 03:00:00 15,9 14,2 - - 18 10 - - SW 1023,6 18 0 0,0
23.08.2019 02:00:00 16,3 14,1 - - 15 8 - - SW 1023,5 19 0 0,0
23.08.2019 01:00:00 16,7 14,0 - - 13 7 - - SW 1023,4 10 - 0,0
23.08.2019 00:00:00 17,4 14,1 - - 15 8 - - WSW 1023,2 25 0 0,0
22.08.2019 23:00:00 18,2 14,2 - - 21 11 - - WSW 1022,9 10 0 0,0
22.08.2019 22:00:00 19,0 14,7 - - 18 10 - - SW 1022,6 10 0 0,0
22.08.2019 21:00:00 19,3 14,7 - - 22 12 - - SW 1022,4 10 0 0,0
22.08.2019 20:00:00 20,0 14,6 - - 26 14 - - SW 1021,7 10 0 0,0
22.08.2019 19:00:00 20,5 14,5 - - 24 13 - - SW 1021,3 10 0 0,0
22.08.2019 18:00:00 21,2 14,3 - - 22 12 46 25 SW 1021,2 10 0 0,0
22.08.2019 17:00:00 21,8 14,6 - - 28 15 50 27 SW 1021,0 35 6 0,0
22.08.2019 16:00:00 21,9 14,4 - - 29 16 48 26 SW 1020,9 10 6 0,0
22.08.2019 15:00:00 21,4 14,3 - - 29 16 48 26 SW 1021,0 10 6 0,0
22.08.2019 14:00:00 20,5 14,0 - - 31 17 - - SW 1021,3 40 0 0,0
22.08.2019 13:00:00 20,1 13,9 - - 28 15 - - SW 1021,8 10 6 0,0
22.08.2019 12:00:00 21,3 13,7 - - 31 17 50 27 SW 1021,3 10 54 0,0
22.08.2019 11:00:00 19,6 13,6 - - 34 18 48 26 SW 1021,6 10 48 0,0
22.08.2019 10:00:00 19,0 13,5 17,5 17,2 29 16 - - SW 1021,4 10 54 0,0
22.08.2019 09:00:00 16,3 12,6 - - 26 14 - - SW 1021,6 10 18 0,0
22.08.2019 08:00:00 15,3 11,9 - - 28 15 - - SW 1021,3 10 6 0,0
22.08.2019 07:00:00 14,5 11,2 - - 26 14 - - SSW 1021,2 10 0 0,0
22.08.2019 06:00:00 14,2 11,0 - - 22 12 - - SSW 1021,2 10 0 0,0
22.08.2019 05:00:00 14,6 10,8 - - 28 15 - - SSW 1021,2 10 0 0,0
22.08.2019 04:00:00 14,8 10,7 - - 22 12 - - SW 1021,4 10 0 0,0
22.08.2019 03:00:00 15,1 10,9 - - 24 13 - - SSW 1021,7 19 0 0,0
22.08.2019 02:00:00 15,3 10,6 - - 24 13 - - SSW 1022,0 20 0 0,0
22.08.2019 01:00:00 15,6 11,0 - - 21 11 - - SSW 1022,3 10 - 0,0
22.08.2019 00:00:00 15,6 10,5 - - 16 9 - - SW 1022,6 25 0 0,0
21.08.2019 23:00:00 16,4 10,1 - - 21 11 - - SSW 1022,9 10 0 0,0
21.08.2019 22:00:00 17,3 9,8 - - 18 10 - - SSW 1022,9 10 0 0,0
21.08.2019 21:00:00 17,9 9,3 - - 18 10 - - SSW 1023,0 10 0 0,0
21.08.2019 20:00:00 18,9 9,4 - - 15 8 - - SW 1022,8 10 0 0,0
21.08.2019 19:00:00 20,3 9,2 - - 24 13 - - SW 1022,5 10 0 0,0
21.08.2019 18:00:00 20,9 9,3 - - 26 14 - - SSW 1022,9 10 0 0,0
21.08.2019 17:00:00 20,8 9,4 - - 22 12 - - SSW 1023,2 10 12 0,0
21.08.2019 16:00:00 20,9 9,8 - - 22 12 - - SW 1023,5 10 12 0,0
21.08.2019 15:00:00 20,9 9,9 - - 21 11 - - SW 1024,0 30 18 0,0
21.08.2019 14:00:00 20,7 10,2 - - 22 12 - - SW 1024,6 10 54 0,0
21.08.2019 13:00:00 20,1 12,1 - - 22 12 - - WSW 1024,7 30 60 0,0
21.08.2019 12:00:00 18,0 12,5 - - 21 11 - - SW 1025,3 10 18 0,0
21.08.2019 11:00:00 16,8 12,0 - - 16 9 - - WSW 1025,5 30 0 0,0
21.08.2019 10:00:00 16,3 12,4 17,2 17,2 18 10 - - WSW 1025,4 10 36 0,0
21.08.2019 09:00:00 14,7 11,8 - - 21 11 - - WSW 1025,7 10 54 0,0
21.08.2019 08:00:00 13,0 11,3 - - 18 10 - - SW 1025,6 25 48 0,0
21.08.2019 07:00:00 12,5 11,1 - - 16 9 - - SW 1025,3 10 6 0,0
21.08.2019 06:00:00 12,3 11,1 - - 18 10 - - SW 1025,1 10 0 0,0
21.08.2019 05:00:00 13,2 11,6 - - 16 9 - - SW 1024,9 30 0 0,0
21.08.2019 04:00:00 13,9 11,8 - - 16 9 - - SW 1024,7 10 0 0,0
21.08.2019 03:00:00 14,3 11,6 - - 21 11 - - SSW 1024,8 10 0 0,0
21.08.2019 02:00:00 13,0 10,6 - - 5 3 - - SSE 1024,7 10 0 0,0
21.08.2019 01:00:00 13,5 10,2 - - 4 2 - - SSW 1025,1 10 - 0,0
21.08.2019 00:00:00 15,0 8,7 - - 13 7 - - SW 1025,2 10 0 0,0
20.08.2019 23:00:00 14,4 9,0 - - 4 2 - - SSW 1024,8 10 0 0,0
20.08.2019 22:00:00 14,0 8,2 - - 5 3 - - S 1024,5 10 0 0,0
20.08.2019 21:00:00 15,3 7,0 - - 4 2 - - NNW 1024,4 10 0 0,0
20.08.2019 20:00:00 16,4 6,7 - - 8 4 - - WNW 1023,9 10 12 0,0
20.08.2019 19:00:00 17,1 6,6 - - 13 7 - - W 1023,5 10 24 0,0
20.08.2019 18:00:00 18,4 7,3 - - 16 9 - - WNW 1022,9 40 30 0,0
20.08.2019 17:00:00 18,2 5,6 - - 22 12 - - W 1022,4 10 42 0,0
20.08.2019 16:00:00 18,4 6,3 - - 24 13 - - W 1022,1 40 60 0,0
20.08.2019 15:00:00 18,0 7,5 - - 22 12 - - W 1021,7 10 30 0,0
20.08.2019 14:00:00 18,2 7,3 - - 24 13 - - W 1021,3 10 42 0,0
20.08.2019 13:00:00 17,4 9,2 - - 18 10 - - W 1021,3 10 6 0,0
20.08.2019 12:00:00 16,1 9,1 - - 16 9 - - WNW 1021,3 10 18 0,0
20.08.2019 11:00:00 15,8 10,0 - - 16 9 - - W 1020,9 10 6 0,0
20.08.2019 10:00:00 14,4 10,4 17,0 17,4 18 10 - - WSW 1020,5 10 24 0,0
20.08.2019 09:00:00 14,0 10,7 - - 16 9 - - WSW 1019,7 10 60 0,0
20.08.2019 08:00:00 11,6 10,2 - - 15 8 - - SW 1019,1 10 54 0,0
20.08.2019 07:00:00 10,4 9,4 - - 16 9 - - SW 1018,5 10 0 0,0
20.08.2019 06:00:00 10,1 9,1 - - 15 8 - - SW 1018,1 25 0 0,0
20.08.2019 05:00:00 10,7 9,1 - - 16 9 - - SW 1017,5 25 0 0,0
20.08.2019 04:00:00 11,2 9,1 - - 16 9 - - SW 1017,1 20 0 0,0
20.08.2019 03:00:00 11,0 8,5 - - 18 10 - - SW 1016,8 20 0 0,0
20.08.2019 02:00:00 11,6 8,6 - - 18 10 - - SW 1016,7 10 0 0,0
20.08.2019 01:00:00 11,8 8,4 - - 16 9 - - SW 1016,6 10 - 0,0
20.08.2019 00:00:00 12,7 8,2 - - 16 9 - - SW 1016,4 30 0 0,0
19.08.2019 23:00:00 14,0 8,4 - - 15 8 - - SW 1015,9 30 0 0,0
19.08.2019 22:00:00 14,1 8,4 - - 8 4 - - WSW 1015,6 10 0 0,0
19.08.2019 21:00:00 15,8 8,6 - - 13 7 - - WSW 1014,9 30 0 0,0
19.08.2019 20:00:00 17,0 7,9 - - 13 7 - - W 1014,1 10 42 0,0
19.08.2019 19:00:00 18,1 10,1 - - 11 6 - - W 1013,3 10 42 0,0
19.08.2019 18:00:00 18,2 10,3 - - 15 8 - - W 1012,9 10 60 0,0
19.08.2019 17:00:00 16,2 10,8 - - 16 9 52 28 W 1013,0 10 0 0,0
19.08.2019 16:00:00 18,5 10,4 - - 22 12 - - WSW 1012,4 10 24 1,2
19.08.2019 15:00:00 18,3 9,9 - - 26 14 - - WSW 1012,0 10 36 0,0
19.08.2019 14:00:00 19,9 7,9 - - 22 12 - - WSW 1011,6 10 54 0,0
19.08.2019 13:00:00 18,2 8,5 - - 21 11 - - W 1011,4 10 42 0,0
19.08.2019 12:00:00 18,7 9,1 - - 18 10 - - WSW 1011,0 10 60 0,0
19.08.2019 11:00:00 17,2 9,0 - - 18 10 - - W 1010,8 10 42 0,0
19.08.2019 10:00:00 16,3 11,4 17,2 17,4 22 12 - - WSW 1010,2 35 48 0,0
19.08.2019 09:00:00 14,9 12,4 - - 21 11 - - WSW 1009,7 10 12 0,0
19.08.2019 08:00:00 12,8 11,1 - - 16 9 - - SW 1009,1 10 12 0,0
19.08.2019 07:00:00 11,9 10,6 - - 18 10 - - SW 1008,6 10 0 0,0
19.08.2019 06:00:00 11,4 10,0 - - 15 8 - - SW 1008,1 10 0 0,0
19.08.2019 05:00:00 12,0 10,0 - - 18 10 - - SW 1007,5 30 0 0,0
19.08.2019 04:00:00 12,1 10,0 - - 16 9 - - SSW 1006,9 10 0 0,0
19.08.2019 03:00:00 12,7 10,1 - - 16 9 - - SW 1006,5 10 0 0,0
19.08.2019 02:00:00 13,0 9,9 - - 21 11 - - SW 1006,4 19 0 0,0
19.08.2019 01:00:00 13,6 9,7 - - 22 12 - - SW 1006,3 21 - 0,0
19.08.2019 00:00:00 14,4 9,7 - - 21 11 - - SW 1005,9 10 0 0,0
18.08.2019 23:00:00 15,2 9,6 - - 18 10 - - SW 1005,3 10 0 0,0
18.08.2019 22:00:00 16,0 8,8 - - 16 9 - - SW 1004,8 10 0 0,0
18.08.2019 21:00:00 16,8 9,2 - - 18 10 - - SW 1004,2 35 0 0,0
18.08.2019 20:00:00 17,6 8,9 - - 21 11 - - WSW 1003,5 40 12 0,0
18.08.2019 19:00:00 18,9 8,5 - - 28 15 - - WSW 1003,2 10 54 0,0
18.08.2019 18:00:00 18,4 8,3 - - 28 15 46 25 SW 1003,0 45 0 0,0
18.08.2019 17:00:00 19,3 8,3 - - 29 16 52 28 SW 1002,4 10 24 0,0
18.08.2019 16:00:00 20,1 7,8 - - 31 17 46 25 SW 1002,0 10 48 0,0
18.08.2019 15:00:00 20,8 9,6 - - 28 15 - - WSW 1001,7 10 48 0,0
18.08.2019 14:00:00 19,2 9,6 - - 24 13 - - WSW 1001,4 10 36 0,0
18.08.2019 13:00:00 19,0 10,4 - - 26 14 - - WSW 1001,0 10 24 0,0
18.08.2019 12:00:00 17,3 11,2 - - 24 13 - - WSW 1001,2 10 30 0,0
18.08.2019 11:00:00 17,6 10,0 - - 24 13 - - SW 1001,1 10 30 0,0
18.08.2019 10:00:00 16,9 10,2 17,2 17,4 28 15 - - SW 1001,0 30 60 0,0
18.08.2019 09:00:00 15,9 10,8 - - 26 14 - - SW 1000,8 10 60 0,0
18.08.2019 08:00:00 14,4 11,7 - - 22 12 - - SSW 1000,7 10 60 0,0
18.08.2019 07:00:00 12,9 10,7 - - 21 11 - - SSW 1000,9 10 18 0,0
18.08.2019 06:00:00 12,9 10,5 - - 22 12 - - SSW 1001,1 10 0 0,0
18.08.2019 05:00:00 13,6 10,1 - - 22 12 - - SSW 1001,0 10 0 0,0
18.08.2019 04:00:00 14,0 9,9 - - 21 11 - - SSW 1001,3 10 0 0,0
18.08.2019 03:00:00 14,2 10,5 - - 15 8 - - SSW 1001,5 22 0 0,0
18.08.2019 02:00:00 14,1 10,1 - - 15 8 - - SW 1002,3 20 0 0,0
18.08.2019 01:00:00 14,3 9,7 - - 16 9 - - SW 1002,2 10 - 0,0
18.08.2019 00:00:00 14,7 9,8 - - 18 10 - - SSW 1003,0 10 0 0,0
17.08.2019 23:00:00 15,0 9,6 - - 18 10 - - SSW 1002,7 35 0 0,0
17.08.2019 22:00:00 15,2 9,5 - - 9 5 - - SSW 1002,6 10 0 0,0
17.08.2019 21:00:00 16,9 8,8 - - 9 5 - - SW 1002,6 35 0 0,0
17.08.2019 20:00:00 17,9 8,5 - - 13 7 - - WSW 1002,3 10 6 0,0
17.08.2019 19:00:00 19,2 8,2 - - 16 9 - - WSW 1002,2 40 12 0,0
17.08.2019 18:00:00 20,9 7,2 - - 21 11 - - WSW 1002,1 10 60 0,0
17.08.2019 17:00:00 20,8 7,0 - - 24 13 46 25 WSW 1002,2 40 54 0,0
17.08.2019 16:00:00 21,2 8,9 - - 26 14 - - WSW 1002,1 40 60 0,0
17.08.2019 15:00:00 20,7 6,6 - - 31 17 48 26 WSW 1002,0 10 54 0,0
17.08.2019 14:00:00 20,8 8,2 - - 34 18 54 29 WSW 1001,8 40 48 0,0
17.08.2019 13:00:00 20,2 9,8 - - 26 14 - - WSW 1001,6 10 54 0,0

tt = temperature
td = dewpoint
tt -20cm = temperature -20cm
tt -100cm = temperature -100cm
ff = wind speed
fx = gusts
dd = wind direction
ppp = reduced air pressure
vv = visibility
sd = sunshine duration
rr = precipitation

Next stations